This demonstration page uses our WeatherBlox Daily Observations layout. Learn more.

Left ArrowRight Arrow

Hourly Observations for June 15, 2018

Temp ( °F °C ) Dew Point ( °F °C ) Humidity (%) Winds ( mph kmh ) Pressure ( in mb ) Visibility ( mi km ) Precip ( " mm )
12:57 am 00:57 Clear 83 28.3 61 16.1 48 48 S 26 43 29.64 1004 10 16 0.00 0.00
1:57 am 01:57 Clear 83 28.3 60 15.6 46 46 S 24 39 29.62 1003 10 16 0.00 0.00
2:57 am 02:57 Clear 81 27.2 60 15.6 49 49 S 22 35 29.62 1003 10 16 0.00 0.00
3:57 am 03:57 Clear 79 26.1 61 16.1 54 54 S 18 30 29.65 1004 10 16 0.00 0.00
4:57 am 04:57 Clear 80 26.7 61 16.1 52 52 S 16 26 29.65 1004 10 16 0.00 0.00
5:57 am 05:57 Clear 78 25.6 60 15.6 54 54 S 18 30 29.65 1004 10 16 0.00 0.00
6:57 am 06:57 Sunny 76 24.4 59 15 56 56 S 13 20 29.67 1005 9 14 0.00 0.00
7:57 am 07:57 Hazy 77 25 60 15.6 56 56 S 14 22 29.66 1005 4 6 0.00 0.00
8:57 am 08:57 Hazy 79 26.1 59 15 50 50 S 21 33 29.67 1005 2 3 0.00 0.00
9:13 am 09:13 Hazy 81 27 61 16 51 51 S 17 28 29.62 1003 3 5 0.00 0.00
9:22 am 09:22 Hazy 81 27 61 16 51 51 S 17 28 29.62 1003 3 4 0.00 0.00
9:57 am 09:57 Hazy 83 28.3 61 16.1 48 48 S 20 31 29.66 1005 2 3 0.00 0.00
10:02 am 10:02 Mostly Cloudy with Haze 84 29 61 16 45 45 SSW 21 33 29.59 1002 1 2 0.00 0.00
10:19 am 10:19 Hazy 84 29 61 16 45 45 SW 14 22 29.65 1004 2 2 0.00 0.00
10:21 am 10:21 Hazy 84 29 61 16 45 45 SW 13 20 29.65 1004 4 6 0.00 0.00
10:53 am 10:53 Hazy 88 31 63 17 43 43 S 20 31 29.59 1002 2 3 0.00 0.00
10:57 am 10:57 Hazy 87 30.6 62 16.7 43 43 S 18 30 29.66 1005 3 4 0.00 0.00
11:10 am 11:10 Mostly Cloudy with Haze 88 31 63 17 43 43 S 18 30 29.59 1002 1 2 0.00 0.00
11:24 am 11:24 Hazy 88 31 61 16 40 40 S 21 33 29.59 1002 3 5 0.00 0.00
11:34 am 11:34 Hazy 88 31 63 17 43 43 S 17 28 29.59 1002 2 3 0.00 0.00
11:57 am 11:57 Hazy 89 31.7 62 16.7 41 41 S 21 33 29.65 1004 2 2 0.00 0.00
12:02 pm 12:02 Hazy 90 32 63 17 41 41 S 18 30 29.59 1002 3 5 0.00 0.00
12:30 pm 12:30 Hazy 91 33 63 17 38 38 S 20 31 29.59 1002 2 3 0.00 0.00
12:53 pm 12:53 Hazy 91 33 63 17 38 38 S 15 24 29.59 1002 2 3 0.00 0.00
12:57 pm 12:57 Hazy 92 33.3 62 16.7 37 37 S 17 28 29.64 1004 2 3 0.00 0.00
1:05 pm 13:05 Hazy 93 34 63 17 36 36 S 18 30 29.53 1000 4 6 0.00 0.00
1:17 pm 13:17 Hazy 93 34 63 17 36 36 S 20 31 29.53 1000 2 3 0.00 0.00
1:27 pm 13:27 Hazy 93 34 63 17 36 36 S 16 26 29.53 1000 4 6 0.00 0.00
1:57 pm 13:57 Hazy 95 35 61 16.1 32 32 S 23 37 29.62 1003 4 6 0.00 0.00
2:55 pm 14:55 Hazy 99 37 61 16 29 29 SSW 24 39 29.53 1000 3 5 0.00 0.00
2:57 pm 14:57 Hazy 98 36.7 61 16.1 29 29 SSW 24 39 29.61 1003 3 5 0.00 0.00
3:30 pm 15:30 Hazy 99 37 61 16 29 29 S 28 44 29.47 998 2 3 0.00 0.00
3:38 pm 15:38 Hazy 99 37 61 16 29 29 S 24 39 29.47 998 3 5 0.00 0.00
3:53 pm 15:53 Hazy 99 37 61 16 29 29 S 18 30 29.47 998 4 6 0.00 0.00
3:57 pm 15:57 Hazy 99 37.2 61 16.1 29 29 SSW 22 35 29.60 1002 5 8 0.00 0.00
4:09 pm 16:09 Hazy 99 37 61 16 29 29 S 23 37 29.47 998 3 4 0.00 0.00
4:18 pm 16:18 Sunny 99 37 61 16 29 29 S 20 31 29.47 998 9 14 0.00 0.00
4:57 pm 16:57 Hazy 99 37.2 61 16.1 29 29 S 26 43 29.57 1002 5 8 0.00 0.00
5:57 pm 17:57 Hazy 98 36.7 61 16.1 29 29 S 18 30 29.57 1001 6 10 0.00 0.00
6:57 pm 18:57 Sunny 96 35.6 60 15.6 30 30 S 23 37 29.56 1001 10 16 0.00 0.00
7:57 pm 19:57 Sunny 94 34.4 61 16.1 33 33 S 18 30 29.57 1001 10 16 0.00 0.00
8:57 pm 20:57 Sunny 90 32.2 61 16.1 38 38 SSE 17 28 29.60 1002 10 16 0.00 0.00
9:57 pm 21:57 Clear 87 30.6 60 15.6 40 40 SSE 20 31 29.61 1003 10 16 0.00 0.00
10:57 pm 22:57 Clear 86 30 61 16.1 43 43 SSE 18 30 29.63 1004 10 16 0.00 0.00
11:57 pm 23:57 Clear 86 30 59 15 40 40 S 25 41 29.64 1004 10 16 0.00 0.00

Powered by AerisWeather